STARLINK-35933

Last updated on Fri Dec 19 2025 00:02:05 GMT+0000 (Coordinated Universal Time)

1 66529U 25265P 25352.48516903 .00059173 00000+0 14099-2 0 9990 2 66529 43.0014 20.9218 0001243 246.0949 113.9777 15.40762374 4646
UTC large
Height (km)
Speed (km/s)
/
Latitude / Longitude
Inclination (degrees)
Orbital Period (minutes)
Azimuth
Elevation
Range (km)
Doppler Factor

Next 0 passes for location: London (51.5072 / 0.1276)

Sorry there are no passes over London.